SWA4173 KSAT-KSAN

Flight info

Callsign SWA4173
Flight time 2h 49m
Altitude 34000
Route ALISS7 ALISS FST ELP J50 SSO GBN J2 HOGGZ LUCKI1
Aircraft B38M/M-SDE1FGHILORVWXY/HB1

Departure

Time 2026-05-03 23:11
Airport San Antonio International Airport (KSAT)

Arrival

Time 2026-05-04 02:00
Airport San Diego International Airport (KSAN)
Time Latitude Longitude Altitude Speed Heading
2026-05-03 22:45 29.52737 -98.47091 801 ft 0 kts 146°
2026-05-03 23:00 29.52752 -98.47102 818 ft 4 kts 153°
2026-05-03 23:01 29.52776 -98.47116 798 ft 4 kts 144°
2026-05-03 23:01 29.52787 -98.47122 801 ft 4 kts 58°
2026-05-03 23:01 29.52772 -98.47138 801 ft 4 kts 42°
2026-05-03 23:01 29.52765 -98.47145 801 ft 0 kts 41°
2026-05-03 23:05 29.52770 -98.47141 801 ft 2 kts 42°
2026-05-03 23:06 29.52787 -98.47123 801 ft 5 kts 42°
2026-05-03 23:06 29.52818 -98.47091 801 ft 7 kts 42°
2026-05-03 23:06 29.52866 -98.47054 801 ft 9 kts
2026-05-03 23:06 29.52937 -98.47042 801 ft 11 kts 355°
2026-05-03 23:07 29.53001 -98.47103 801 ft 13 kts 314°
2026-05-03 23:07 29.53066 -98.47189 801 ft 16 kts 311°
2026-05-03 23:07 29.53146 -98.47287 800 ft 18 kts 311°
2026-05-03 23:07 29.53235 -98.47403 800 ft 21 kts 311°
2026-05-03 23:08 29.53337 -98.47534 800 ft 23 kts 311°
2026-05-03 23:08 29.53446 -98.47677 800 ft 25 kts 311°
2026-05-03 23:08 29.53568 -98.47830 800 ft 27 kts 312°
2026-05-03 23:08 29.53696 -98.47997 800 ft 28 kts 311°
2026-05-03 23:09 29.53823 -98.48160 800 ft 28 kts 311°
2026-05-03 23:09 29.53956 -98.48331 800 ft 29 kts 311°
2026-05-03 23:09 29.54093 -98.48508 800 ft 27 kts 311°
2026-05-03 23:09 29.54179 -98.48605 800 ft 9 kts 342°
2026-05-03 23:10 29.54218 -98.48587 800 ft 7 kts 39°
2026-05-03 23:10 29.54251 -98.48543 800 ft 8 kts 80°
2026-05-03 23:10 29.54222 -98.48490 800 ft 10 kts 127°
2026-05-03 23:10 29.54039 -98.48253 800 ft 79 kts 132°
2026-05-03 23:11 29.53757 -98.47888 800 ft 123 kts 130°
2026-05-03 23:11 29.53062 -98.46998 1012 ft 165 kts 133°
2026-05-03 23:11 29.52286 -98.46008 1862 ft 165 kts 128°
2026-05-03 23:11 29.51858 -98.44800 2676 ft 164 kts 84°
2026-05-03 23:12 29.52202 -98.43595 3524 ft 163 kts 58°
2026-05-03 23:12 29.53066 -98.42738 3857 ft 168 kts 22°
2026-05-03 23:12 29.54270 -98.42608 4094 ft 192 kts 348°
2026-05-03 23:12 29.55464 -98.43493 4581 ft 221 kts 314°
2026-05-03 23:13 29.56594 -98.44788 5179 ft 240 kts 322°
2026-05-03 23:13 29.57938 -98.46015 5864 ft 250 kts 323°
2026-05-03 23:13 29.59290 -98.47275 6796 ft 251 kts 322°
2026-05-03 23:13 29.60645 -98.48552 7645 ft 253 kts 322°
2026-05-03 23:14 29.62015 -98.49843 8579 ft 255 kts 321°
2026-05-03 23:14 29.63396 -98.51148 9525 ft 263 kts 320°
2026-05-03 23:14 29.64854 -98.52530 10156 ft 281 kts 320°
2026-05-03 23:14 29.66413 -98.54011 10664 ft 301 kts 320°
2026-05-03 23:15 29.68085 -98.55596 11101 ft 322 kts 319°
2026-05-03 23:15 29.69858 -98.57295 11544 ft 340 kts 319°
2026-05-03 23:15 29.71706 -98.59074 12139 ft 352 kts 319°
2026-05-03 23:15 29.73590 -98.60899 12955 ft 355 kts 318°
2026-05-03 23:16 29.75483 -98.62742 13776 ft 359 kts 317°
2026-05-03 23:16 29.77395 -98.64611 14475 ft 362 kts 317°
2026-05-03 23:16 29.79112 -98.66668 15170 ft 361 kts 307°
2026-05-03 23:16 29.80701 -98.68926 15875 ft 364 kts 307°
2026-05-03 23:17 29.82306 -98.71193 16567 ft 366 kts 307°
2026-05-03 23:17 29.83921 -98.73475 17261 ft 368 kts 307°
2026-05-03 23:17 29.85545 -98.75770 17932 ft 371 kts 307°
2026-05-03 23:17 29.87179 -98.78082 18571 ft 373 kts 307°
2026-05-03 23:18 29.88823 -98.80405 19117 ft 375 kts 306°
2026-05-03 23:18 29.90480 -98.82742 19695 ft 377 kts 306°
2026-05-03 23:18 29.92141 -98.85085 20250 ft 379 kts 306°
2026-05-03 23:18 29.93814 -98.87447 20792 ft 382 kts 306°
2026-05-03 23:19 29.95496 -98.89823 21343 ft 384 kts 306°
2026-05-03 23:19 29.97189 -98.92217 21876 ft 386 kts 305°
2026-05-03 23:19 29.98890 -98.94622 22409 ft 388 kts 305°
2026-05-03 23:19 30.00602 -98.97046 22919 ft 390 kts 305°
2026-05-03 23:20 30.02322 -98.99480 23442 ft 393 kts 305°
2026-05-03 23:20 30.04052 -99.01932 23898 ft 395 kts 305°
2026-05-03 23:20 30.05790 -99.04396 24333 ft 397 kts 305°
2026-05-03 23:20 30.07533 -99.06868 24785 ft 398 kts 304°
2026-05-03 23:21 30.09284 -99.09353 25214 ft 400 kts 304°
2026-05-03 23:21 30.10878 -99.11966 25621 ft 396 kts 294°
2026-05-03 23:21 30.11806 -99.14947 25990 ft 396 kts 285°
2026-05-03 23:21 30.12586 -99.18011 26337 ft 399 kts 284°
2026-05-03 23:22 30.14087 -99.24195 27140 ft 402 kts 284°
2026-05-03 23:22 30.14823 -99.27315 27511 ft 403 kts 284°
2026-05-03 23:22 30.15556 -99.30450 27880 ft 405 kts 284°
2026-05-03 23:23 30.16290 -99.33600 28236 ft 407 kts 284°
2026-05-03 23:23 30.17027 -99.36769 28591 ft 409 kts 284°
2026-05-03 23:23 30.17764 -99.39945 28951 ft 410 kts 284°
2026-05-03 23:23 30.18501 -99.43126 29404 ft 409 kts 284°
2026-05-03 23:24 30.19235 -99.46291 29934 ft 407 kts 284°
2026-05-03 23:24 30.19963 -99.49441 30406 ft 404 kts 284°
2026-05-03 23:24 30.20686 -99.52572 30867 ft 402 kts 284°
2026-05-03 23:24 30.21405 -99.55685 31334 ft 399 kts 284°
2026-05-03 23:25 30.22116 -99.58772 31797 ft 396 kts 284°
2026-05-03 23:25 30.22823 -99.61841 32253 ft 394 kts 284°
2026-05-03 23:25 30.23525 -99.64894 32722 ft 391 kts 284°
2026-05-03 23:25 30.24221 -99.67924 33180 ft 389 kts 284°
2026-05-03 23:26 30.24912 -99.70936 33651 ft 386 kts 284°
2026-05-03 23:26 30.25598 -99.73929 34018 ft 385 kts 284°
2026-05-03 23:26 30.26961 -99.79887 34079 ft 381 kts 283°
2026-05-03 23:27 30.28312 -99.85809 34073 ft 381 kts 283°
2026-05-03 23:27 30.29663 -99.91738 34074 ft 381 kts 283°
2026-05-03 23:28 30.31012 -99.97671 34069 ft 381 kts 284°
2026-05-03 23:28 30.32356 -100.03600 34062 ft 381 kts 283°
2026-05-03 23:29 30.33699 -100.09537 34050 ft 381 kts 283°
2026-05-03 23:29 30.35041 -100.15483 34046 ft 382 kts 283°
2026-05-03 23:30 30.36381 -100.21433 34045 ft 382 kts 283°
2026-05-03 23:30 30.37492 -100.26378 34049 ft 383 kts 283°
2026-05-03 23:31 30.38831 -100.32346 34053 ft 383 kts 283°
2026-05-03 23:31 30.40169 -100.38329 34071 ft 384 kts 283°
2026-05-03 23:32 30.41506 -100.44316 34078 ft 384 kts 283°
2026-05-03 23:32 30.42839 -100.50303 34099 ft 385 kts 283°
2026-05-03 23:33 30.44174 -100.56309 34105 ft 384 kts 283°
2026-05-03 23:33 30.45504 -100.62311 34117 ft 384 kts 283°
2026-05-03 23:34 30.46828 -100.68301 34117 ft 384 kts 283°
2026-05-03 23:34 30.48152 -100.74299 34117 ft 383 kts 283°
2026-05-03 23:35 30.49468 -100.80281 34107 ft 383 kts 283°
2026-05-03 23:35 30.50780 -100.86255 34101 ft 382 kts 283°
2026-05-03 23:36 30.52089 -100.92227 34085 ft 382 kts 283°
2026-05-03 23:36 30.53384 -100.98155 34075 ft 382 kts 283°
2026-05-03 23:37 30.54695 -101.04165 34077 ft 382 kts 283°
2026-05-03 23:37 30.55995 -101.10142 34092 ft 382 kts 283°
2026-05-03 23:38 30.57283 -101.16078 34097 ft 382 kts 283°
2026-05-03 23:38 30.58586 -101.22095 34104 ft 382 kts 283°
2026-05-03 23:39 30.59871 -101.28043 34100 ft 382 kts 283°
2026-05-03 23:39 30.61159 -101.34021 34030 ft 383 kts 284°
2026-05-03 23:40 30.62451 -101.40031 34089 ft 384 kts 284°
2026-05-03 23:40 30.63739 -101.46040 34074 ft 384 kts 284°
2026-05-03 23:41 30.65027 -101.52057 34061 ft 384 kts 284°
2026-05-03 23:41 30.66311 -101.58077 34046 ft 385 kts 284°
2026-05-03 23:42 30.67595 -101.64106 34040 ft 385 kts 284°
2026-05-03 23:42 30.68880 -101.70154 34041 ft 386 kts 284°
2026-05-03 23:43 30.70163 -101.76213 34032 ft 386 kts 284°
2026-05-03 23:43 30.71444 -101.82273 34029 ft 386 kts 284°
2026-05-03 23:44 30.72721 -101.88332 34028 ft 386 kts 284°
2026-05-03 23:44 30.73992 -101.94377 34025 ft 385 kts 284°
2026-05-03 23:45 30.75262 -102.00428 34021 ft 385 kts 284°
2026-05-03 23:45 30.76526 -102.06472 34017 ft 384 kts 284°
2026-05-03 23:46 30.77787 -102.12508 34013 ft 384 kts 283°
2026-05-03 23:46 30.79044 -102.18548 34013 ft 384 kts 283°
2026-05-03 23:47 30.80299 -102.24588 34003 ft 384 kts 283°
2026-05-03 23:47 30.81550 -102.30627 34004 ft 384 kts 283°
2026-05-03 23:48 30.82798 -102.36665 33997 ft 384 kts 283°
2026-05-03 23:48 30.84041 -102.42696 33993 ft 383 kts 283°
2026-05-03 23:49 30.85281 -102.48727 33984 ft 383 kts 283°
2026-05-03 23:49 30.86517 -102.54753 33991 ft 383 kts 283°
2026-05-03 23:50 30.87543 -102.59762 33998 ft 383 kts 283°
2026-05-03 23:50 30.88973 -102.66763 34010 ft 383 kts 282°
2026-05-03 23:51 30.90203 -102.72798 34025 ft 383 kts 282°
2026-05-03 23:51 30.91431 -102.78838 34040 ft 384 kts 282°
2026-05-03 23:52 30.92659 -102.84894 34038 ft 384 kts 282°
2026-05-03 23:52 30.93883 -102.90947 34042 ft 385 kts 282°
2026-05-03 23:53 30.95119 -102.97012 34044 ft 385 kts 284°
2026-05-03 23:53 30.96797 -103.02950 34036 ft 386 kts 286°
2026-05-03 23:54 30.98448 -103.08902 34014 ft 386 kts 286°
2026-05-03 23:54 31.00085 -103.14850 33994 ft 385 kts 286°
2026-05-03 23:55 31.01717 -103.20801 33968 ft 385 kts 286°
2026-05-03 23:55 31.03345 -103.26749 33942 ft 385 kts 285°
2026-05-03 23:56 31.04959 -103.32656 33932 ft 385 kts 285°
2026-05-03 23:56 31.06590 -103.38638 33941 ft 384 kts 285°
2026-05-03 23:57 31.08207 -103.44583 33948 ft 384 kts 285°
2026-05-03 23:57 31.09822 -103.50527 33958 ft 384 kts 285°
2026-05-03 23:58 31.11431 -103.56465 33963 ft 384 kts 285°
2026-05-03 23:58 31.13037 -103.62403 33965 ft 384 kts 285°
2026-05-03 23:59 31.14640 -103.68342 33964 ft 383 kts 285°
2026-05-03 23:59 31.16228 -103.74237 33962 ft 383 kts 285°
2026-05-04 00:00 31.17824 -103.80175 33951 ft 383 kts 285°
2026-05-04 00:00 31.19417 -103.86114 33947 ft 383 kts 285°
2026-05-04 00:01 31.21009 -103.92062 33942 ft 384 kts 285°
2026-05-04 00:01 31.22597 -103.98003 33951 ft 384 kts 285°
2026-05-04 00:02 31.24184 -104.03958 33962 ft 384 kts 285°
2026-05-04 00:02 31.25772 -104.09927 33957 ft 385 kts 285°
2026-05-04 00:03 31.27359 -104.15905 33963 ft 385 kts 285°
2026-05-04 00:03 31.28945 -104.21891 33963 ft 386 kts 285°
2026-05-04 00:04 31.30529 -104.27882 33960 ft 386 kts 285°
2026-05-04 00:04 31.32110 -104.33875 33954 ft 386 kts 284°
2026-05-04 00:05 31.33687 -104.39861 33959 ft 386 kts 284°
2026-05-04 00:05 31.35263 -104.45860 33957 ft 385 kts 284°
2026-05-04 00:06 31.36833 -104.51849 33952 ft 385 kts 284°
2026-05-04 00:06 31.38400 -104.57835 33949 ft 384 kts 284°
2026-05-04 00:07 31.39962 -104.63819 33945 ft 385 kts 284°
2026-05-04 00:07 31.41525 -104.69817 33946 ft 385 kts 284°
2026-05-04 00:08 31.43083 -104.75811 33946 ft 385 kts 284°
2026-05-04 00:08 31.44639 -104.81809 33948 ft 385 kts 284°
2026-05-04 00:09 31.46193 -104.87812 33937 ft 385 kts 284°
2026-05-04 00:09 31.47743 -104.93814 33963 ft 386 kts 284°
2026-05-04 00:10 31.49294 -104.99829 33953 ft 385 kts 284°
2026-05-04 00:10 31.50840 -105.05841 33943 ft 385 kts 284°
2026-05-04 00:11 31.52372 -105.11811 33936 ft 385 kts 284°
2026-05-04 00:11 31.53912 -105.17821 33931 ft 385 kts 284°
2026-05-04 00:12 31.55458 -105.23870 33927 ft 385 kts 284°
2026-05-04 00:12 31.56984 -105.29855 33923 ft 385 kts 284°
2026-05-04 00:13 31.58516 -105.35875 33922 ft 385 kts 284°
2026-05-04 00:13 31.60046 -105.41900 33922 ft 385 kts 284°
2026-05-04 00:14 31.61571 -105.47923 33918 ft 385 kts 284°
2026-05-04 00:14 31.63096 -105.53955 33920 ft 385 kts 284°
2026-05-04 00:15 31.64617 -105.59982 33917 ft 385 kts 284°
2026-05-04 00:15 31.66136 -105.66019 33914 ft 385 kts 284°
2026-05-04 00:16 31.67652 -105.72052 33917 ft 385 kts 284°
2026-05-04 00:16 31.69164 -105.78086 33913 ft 385 kts 283°
2026-05-04 00:17 31.70674 -105.84127 33908 ft 386 kts 283°
2026-05-04 00:17 31.72183 -105.90175 33913 ft 386 kts 283°
2026-05-04 00:18 31.73433 -105.95196 33911 ft 386 kts 283°
2026-05-04 00:18 31.74938 -106.01248 33926 ft 386 kts 283°
2026-05-04 00:19 31.76440 -106.07301 33947 ft 386 kts 283°
2026-05-04 00:19 31.77942 -106.13364 33971 ft 386 kts 283°
2026-05-04 00:20 31.79441 -106.19432 33997 ft 387 kts 283°
2026-05-04 00:20 31.80938 -106.25504 34021 ft 387 kts 283°
2026-05-04 00:21 31.81833 -106.31676 34025 ft 384 kts 274°
2026-05-04 00:21 31.82328 -106.37937 34026 ft 385 kts 274°
2026-05-04 00:22 31.82803 -106.44203 34035 ft 385 kts 274°
2026-05-04 00:22 31.83272 -106.50471 34021 ft 385 kts 274°
2026-05-04 00:23 31.83739 -106.56750 34020 ft 385 kts 274°
2026-05-04 00:23 31.84201 -106.63013 34040 ft 385 kts 274°
2026-05-04 00:24 31.84661 -106.69289 34044 ft 385 kts 274°
2026-05-04 00:24 31.85119 -106.75572 34048 ft 385 kts 274°
2026-05-04 00:25 31.85569 -106.81806 34038 ft 385 kts 274°
2026-05-04 00:25 31.86023 -106.88127 34006 ft 385 kts 274°
2026-05-04 00:26 31.86469 -106.94374 33978 ft 385 kts 274°
2026-05-04 00:26 31.86916 -107.00692 33947 ft 385 kts 274°
2026-05-04 00:27 31.87356 -107.06935 33915 ft 385 kts 274°
2026-05-04 00:27 31.87794 -107.13213 33885 ft 385 kts 274°
2026-05-04 00:28 31.88230 -107.19499 33883 ft 385 kts 274°
2026-05-04 00:28 31.88662 -107.25778 33889 ft 385 kts 274°
2026-05-04 00:29 31.89091 -107.32060 33887 ft 385 kts 274°
2026-05-04 00:29 31.89517 -107.38341 33885 ft 385 kts 273°
2026-05-04 00:30 31.89940 -107.44623 33886 ft 385 kts 273°
2026-05-04 00:30 31.90359 -107.50890 33883 ft 384 kts 273°
2026-05-04 00:31 31.90776 -107.57169 33891 ft 384 kts 273°
2026-05-04 00:31 31.91188 -107.63435 33891 ft 384 kts 273°
2026-05-04 00:32 31.91598 -107.69693 33894 ft 384 kts 273°
2026-05-04 00:32 31.92005 -107.75951 33899 ft 384 kts 273°
2026-05-04 00:33 31.93882 -107.85125 33899 ft 386 kts 282°
2026-05-04 00:34 31.95321 -107.91159 33893 ft 385 kts 282°
2026-05-04 00:34 31.96775 -107.97230 33885 ft 385 kts 282°
2026-05-04 00:35 31.98225 -108.03291 33888 ft 385 kts 282°
2026-05-04 00:35 31.99671 -108.09354 33891 ft 384 kts 282°
2026-05-04 00:36 32.01113 -108.15408 33887 ft 383 kts 282°
2026-05-04 00:36 32.02545 -108.21439 33883 ft 382 kts 282°
2026-05-04 00:37 32.03969 -108.27450 33888 ft 380 kts 282°
2026-05-04 00:37 32.05386 -108.33441 33883 ft 379 kts 282°
2026-05-04 00:38 32.06795 -108.39416 33877 ft 378 kts 282°
2026-05-04 00:38 32.08197 -108.45376 33897 ft 377 kts 282°
2026-05-04 00:39 32.09592 -108.51316 33919 ft 375 kts 282°
2026-05-04 00:39 32.10980 -108.57241 33939 ft 374 kts 282°
2026-05-04 00:40 32.12362 -108.63155 33953 ft 373 kts 282°
2026-05-04 00:40 32.13737 -108.69050 33965 ft 372 kts 282°
2026-05-04 00:41 32.15104 -108.74926 33966 ft 371 kts 282°
2026-05-04 00:41 32.16467 -108.80800 33960 ft 371 kts 282°
2026-05-04 00:42 32.17825 -108.86665 33944 ft 370 kts 282°
2026-05-04 00:42 32.19178 -108.92520 33928 ft 370 kts 282°
2026-05-04 00:43 32.20520 -108.98342 33901 ft 370 kts 282°
2026-05-04 00:43 32.21868 -109.04204 33875 ft 370 kts 282°
2026-05-04 00:44 32.23212 -109.10061 33843 ft 369 kts 282°
2026-05-04 00:44 32.24554 -109.15917 33837 ft 369 kts 282°
2026-05-04 00:45 32.25893 -109.21775 33838 ft 369 kts 282°
2026-05-04 00:45 32.27202 -109.27640 33825 ft 369 kts 282°
2026-05-04 00:46 32.28465 -109.33506 33824 ft 369 kts 282°
2026-05-04 00:46 32.29730 -109.39374 33822 ft 368 kts 282°
2026-05-04 00:47 32.30991 -109.45237 33824 ft 368 kts 282°
2026-05-04 00:47 32.32249 -109.51100 33817 ft 368 kts 282°
2026-05-04 00:48 32.33504 -109.56961 33820 ft 367 kts 282°
2026-05-04 00:48 32.34755 -109.62817 33810 ft 367 kts 282°
2026-05-04 00:49 32.35993 -109.68626 33818 ft 367 kts 282°
2026-05-04 00:49 32.37242 -109.74507 33823 ft 366 kts 282°
2026-05-04 00:50 32.38472 -109.80308 33826 ft 365 kts 282°
2026-05-04 00:50 32.39705 -109.86137 33837 ft 365 kts 282°
2026-05-04 00:51 32.40941 -109.91994 33844 ft 365 kts 282°
2026-05-04 00:51 32.42159 -109.97780 33849 ft 364 kts 282°
2026-05-04 00:52 32.43381 -110.03603 33848 ft 364 kts 282°
2026-05-04 00:52 32.44598 -110.09415 33841 ft 364 kts 282°
2026-05-04 00:53 32.45812 -110.15226 33862 ft 364 kts 282°
2026-05-04 00:53 32.47021 -110.21027 33855 ft 363 kts 282°
2026-05-04 00:54 32.48223 -110.26809 33885 ft 361 kts 281°
2026-05-04 00:54 32.49423 -110.32597 33868 ft 362 kts 282°
2026-05-04 00:55 32.50619 -110.38378 33901 ft 362 kts 282°
2026-05-04 00:55 32.51814 -110.44169 33864 ft 362 kts 282°
2026-05-04 00:56 32.53006 -110.49962 33867 ft 362 kts 282°
2026-05-04 00:56 32.54193 -110.55742 33861 ft 361 kts 282°
2026-05-04 00:57 32.55376 -110.61518 33860 ft 360 kts 282°
2026-05-04 00:57 32.56556 -110.67290 33861 ft 360 kts 282°
2026-05-04 00:58 32.57733 -110.73068 33858 ft 361 kts 281°
2026-05-04 00:58 32.58911 -110.78862 33864 ft 362 kts 282°
2026-05-04 00:59 32.60086 -110.84657 33852 ft 360 kts 282°
2026-05-04 00:59 32.61251 -110.90421 33853 ft 360 kts 281°
2026-05-04 01:00 32.62415 -110.96190 33856 ft 359 kts 281°
2026-05-04 01:00 32.63575 -111.01952 33859 ft 359 kts 281°
2026-05-04 01:01 32.64723 -111.07674 33861 ft 358 kts 281°
2026-05-04 01:01 32.65874 -111.13421 33863 ft 358 kts 281°
2026-05-04 01:02 32.67021 -111.19164 33867 ft 357 kts 281°
2026-05-04 01:02 32.68164 -111.24901 33873 ft 357 kts 281°
2026-05-04 01:03 32.69305 -111.30641 33866 ft 357 kts 281°
2026-05-04 01:03 32.70442 -111.36381 33860 ft 357 kts 281°
2026-05-04 01:04 32.71579 -111.42129 33871 ft 358 kts 281°
2026-05-04 01:04 32.72711 -111.47874 33835 ft 356 kts 281°
2026-05-04 01:05 32.73839 -111.53607 33825 ft 357 kts 281°
2026-05-04 01:05 32.74965 -111.59349 33818 ft 357 kts 281°
2026-05-04 01:06 32.76088 -111.65090 33820 ft 357 kts 281°
2026-05-04 01:06 32.77208 -111.70827 33824 ft 356 kts 281°
2026-05-04 01:07 32.78136 -111.75589 33828 ft 356 kts 281°
2026-05-04 01:07 32.79250 -111.81329 33830 ft 356 kts 281°
2026-05-04 01:08 32.80360 -111.87057 33829 ft 356 kts 281°
2026-05-04 01:08 32.81646 -111.93713 33823 ft 355 kts 281°
2026-05-04 01:09 32.82570 -111.98511 33816 ft 355 kts 281°
2026-05-04 01:09 32.83671 -112.04236 33813 ft 355 kts 281°
2026-05-04 01:10 32.84767 -112.09956 33806 ft 355 kts 281°
2026-05-04 01:10 32.85862 -112.15681 33796 ft 355 kts 280°
2026-05-04 01:11 32.86955 -112.21407 33811 ft 355 kts 280°
2026-05-04 01:11 32.88043 -112.27129 33797 ft 354 kts 280°
2026-05-04 01:12 32.89125 -112.32839 33783 ft 354 kts 280°
2026-05-04 01:12 32.90210 -112.38560 33792 ft 354 kts 280°
2026-05-04 01:13 32.91289 -112.44266 33814 ft 353 kts 280°
2026-05-04 01:13 32.92363 -112.49968 33808 ft 353 kts 280°
2026-05-04 01:14 32.93435 -112.55675 33812 ft 353 kts 280°
2026-05-04 01:14 32.94504 -112.61375 33813 ft 353 kts 280°
2026-05-04 01:15 32.95396 -112.67064 33806 ft 351 kts 269°
2026-05-04 01:15 32.94816 -112.72882 33814 ft 352 kts 264°
2026-05-04 01:16 32.94108 -112.78610 33813 ft 352 kts 264°
2026-05-04 01:16 32.93349 -112.84367 33810 ft 352 kts 264°
2026-05-04 01:17 32.92574 -112.90116 33809 ft 352 kts 263°
2026-05-04 01:17 32.91794 -112.95865 33800 ft 351 kts 263°
2026-05-04 01:18 32.91012 -113.01606 33796 ft 351 kts 263°
2026-05-04 01:18 32.90228 -113.07343 33793 ft 351 kts 263°
2026-05-04 01:19 32.89443 -113.13069 33779 ft 351 kts 263°
2026-05-04 01:19 32.88655 -113.18796 33784 ft 350 kts 263°
2026-05-04 01:20 32.87866 -113.24511 33782 ft 350 kts 263°
2026-05-04 01:20 32.87074 -113.30223 33783 ft 350 kts 263°
2026-05-04 01:21 32.86280 -113.35929 33781 ft 350 kts 263°
2026-05-04 01:21 32.85484 -113.41636 33779 ft 350 kts 263°
2026-05-04 01:22 32.84686 -113.47337 33782 ft 350 kts 263°
2026-05-04 01:22 32.83885 -113.53038 33786 ft 349 kts 262°
2026-05-04 01:23 32.83080 -113.58743 33781 ft 350 kts 262°
2026-05-04 01:23 32.82275 -113.64439 33784 ft 349 kts 262°
2026-05-04 01:24 32.81466 -113.70136 33784 ft 349 kts 262°
2026-05-04 01:24 32.80660 -113.75790 33784 ft 349 kts 262°
2026-05-04 01:25 32.79847 -113.81479 33783 ft 349 kts 262°
2026-05-04 01:25 32.79027 -113.87199 33786 ft 349 kts 262°
2026-05-04 01:26 32.78214 -113.92843 33784 ft 349 kts 262°
2026-05-04 01:26 32.77593 -113.98534 33788 ft 347 kts 269°
2026-05-04 01:27 32.77520 -114.04287 33779 ft 348 kts 268°
2026-05-04 01:27 32.77663 -114.10050 33777 ft 349 kts 271°
2026-05-04 01:28 32.77894 -114.15819 33771 ft 350 kts 271°
2026-05-04 01:28 32.78113 -114.21595 33774 ft 350 kts 270°
2026-05-04 01:29 32.78327 -114.27371 33768 ft 350 kts 270°
2026-05-04 01:29 32.78539 -114.33147 33776 ft 351 kts 270°
2026-05-04 01:30 32.78926 -114.38920 33755 ft 355 kts 281°
2026-05-04 01:30 32.80433 -114.44592 33770 ft 359 kts 281°
2026-05-04 01:31 32.81940 -114.50193 33770 ft 359 kts 282°
2026-05-04 01:31 32.83484 -114.55836 33764 ft 359 kts 282°
2026-05-04 01:32 32.85034 -114.61486 33767 ft 360 kts 282°
2026-05-04 01:32 32.86583 -114.67145 33765 ft 360 kts 282°
2026-05-04 01:33 32.87753 -114.72867 33765 ft 351 kts 268°
2026-05-04 01:33 32.87739 -114.78675 33772 ft 352 kts 268°
2026-05-04 01:34 32.87660 -114.84495 33770 ft 351 kts 267°
2026-05-04 01:34 32.87542 -114.90304 33772 ft 352 kts 266°
2026-05-04 01:35 32.87439 -114.94917 33770 ft 352 kts 266°
2026-05-04 01:35 32.87306 -115.00730 33770 ft 352 kts 266°
2026-05-04 01:36 32.87169 -115.06549 33768 ft 352 kts 266°
2026-05-04 01:36 32.87029 -115.12362 33763 ft 352 kts 266°
2026-05-04 01:37 32.86887 -115.18181 33764 ft 352 kts 266°
2026-05-04 01:37 32.86744 -115.23952 33093 ft 346 kts 266°
2026-05-04 01:37 32.86672 -115.26823 32258 ft 348 kts 266°
2026-05-04 01:38 32.86596 -115.29717 31419 ft 351 kts 265°
2026-05-04 01:38 32.86260 -115.32544 30514 ft 354 kts 260°
2026-05-04 01:38 32.85997 -115.35475 29505 ft 359 kts 266°
2026-05-04 01:38 32.85718 -115.38468 28451 ft 369 kts 263°
2026-05-04 01:39 32.85384 -115.41573 27557 ft 377 kts 261°
2026-05-04 01:39 32.85039 -115.44639 26449 ft 383 kts 265°
2026-05-04 01:39 32.84907 -115.47851 25715 ft 392 kts 260°
2026-05-04 01:39 32.84197 -115.51001 25228 ft 397 kts 256°
2026-05-04 01:40 32.83593 -115.54213 24868 ft 400 kts 258°
2026-05-04 01:40 32.83028 -115.57458 24487 ft 402 kts 258°
2026-05-04 01:40 32.82477 -115.60717 24063 ft 402 kts 258°
2026-05-04 01:40 32.81937 -115.63977 23652 ft 401 kts 258°
2026-05-04 01:41 32.81403 -115.67227 23167 ft 400 kts 258°
2026-05-04 01:41 32.80872 -115.70472 22664 ft 399 kts 258°
2026-05-04 01:41 32.80343 -115.73703 22207 ft 398 kts 258°
2026-05-04 01:41 32.79815 -115.76921 21757 ft 396 kts 258°
2026-05-04 01:42 32.79288 -115.80132 21322 ft 395 kts 258°
2026-05-04 01:42 32.78762 -115.83332 20888 ft 394 kts 258°
2026-05-04 01:42 32.78440 -115.86558 20385 ft 393 kts 264°
2026-05-04 01:42 32.78229 -115.89797 19971 ft 393 kts 263°
2026-05-04 01:43 32.77998 -115.93025 19562 ft 392 kts 263°
2026-05-04 01:43 32.77759 -115.96215 19151 ft 383 kts 263°
2026-05-04 01:43 32.77518 -115.99338 18741 ft 375 kts 262°
2026-05-04 01:43 32.77280 -116.02393 18341 ft 368 kts 262°
2026-05-04 01:44 32.77044 -116.05394 17911 ft 362 kts 262°
2026-05-04 01:44 32.76813 -116.08348 17492 ft 356 kts 262°
2026-05-04 01:44 32.76584 -116.11246 17106 ft 350 kts 262°
2026-05-04 01:44 32.76358 -116.14103 16712 ft 345 kts 262°
2026-05-04 01:45 32.76134 -116.16919 16313 ft 340 kts 262°
2026-05-04 01:45 32.75913 -116.19701 15930 ft 336 kts 262°
2026-05-04 01:45 32.75475 -116.25179 15193 ft 330 kts 262°
2026-05-04 01:46 32.75405 -116.26055 15077 ft 328 kts 262°
2026-05-04 01:46 32.75211 -116.28483 14710 ft 325 kts 263°
2026-05-04 01:46 32.75004 -116.31173 14184 ft 328 kts 263°
2026-05-04 01:47 32.74796 -116.33866 13737 ft 327 kts 263°
2026-05-04 01:47 32.74591 -116.36509 13234 ft 315 kts 262°
2026-05-04 01:47 32.74392 -116.39059 12765 ft 304 kts 262°
2026-05-04 01:47 32.74200 -116.41517 12318 ft 294 kts 262°
2026-05-04 01:48 32.74014 -116.43892 11884 ft 284 kts 262°
2026-05-04 01:48 32.73836 -116.46157 11477 ft 275 kts 262°
2026-05-04 01:48 32.73659 -116.48417 11086 ft 276 kts 262°
2026-05-04 01:48 32.73464 -116.50688 10677 ft 277 kts 260°
2026-05-04 01:49 32.73247 -116.52934 10306 ft 269 kts 260°
2026-05-04 01:49 32.73035 -116.55134 9982 ft 260 kts 260°
2026-05-04 01:49 32.72838 -116.57189 9669 ft 249 kts 259°
2026-05-04 01:49 32.72643 -116.59226 9365 ft 249 kts 260°
2026-05-04 01:50 32.72445 -116.61282 9049 ft 252 kts 260°
2026-05-04 01:50 32.72324 -116.62543 8839 ft 252 kts 260°
2026-05-04 01:50 32.72120 -116.64664 8532 ft 251 kts 260°
2026-05-04 01:50 32.71944 -116.66718 8217 ft 251 kts 262°
2026-05-04 01:51 32.71784 -116.68778 7908 ft 250 kts 261°
2026-05-04 01:51 32.71622 -116.70818 7618 ft 247 kts 261°
2026-05-04 01:51 32.71464 -116.72860 7328 ft 249 kts 261°
2026-05-04 01:51 32.71297 -116.74920 7013 ft 253 kts 261°
2026-05-04 01:52 32.71133 -116.76993 6654 ft 249 kts 262°
2026-05-04 01:52 32.70975 -116.78989 6389 ft 237 kts 262°
2026-05-04 01:52 32.70823 -116.80909 6101 ft 229 kts 262°
2026-05-04 01:52 32.70481 -116.82701 5808 ft 218 kts 248°
2026-05-04 01:53 32.69955 -116.84355 5614 ft 210 kts 249°
2026-05-04 01:53 32.69464 -116.85928 5483 ft 198 kts 249°
2026-05-04 01:53 32.69006 -116.87440 5234 ft 192 kts 253°
2026-05-04 01:53 32.68857 -116.88819 5054 ft 183 kts 266°
2026-05-04 01:54 32.68803 -116.90263 5032 ft 168 kts 266°
2026-05-04 01:54 32.68754 -116.91636 5019 ft 166 kts 266°
2026-05-04 01:54 32.68722 -116.92564 4993 ft 166 kts 267°
2026-05-04 01:54 32.68683 -116.93933 4997 ft 166 kts 267°
2026-05-04 01:55 32.68643 -116.95283 4971 ft 163 kts 269°
2026-05-04 01:55 32.68622 -116.96629 4717 ft 165 kts 267°
2026-05-04 01:55 32.68684 -116.98012 4343 ft 172 kts 274°
2026-05-04 01:55 32.68771 -116.99430 3988 ft 166 kts 274°
2026-05-04 01:56 32.68851 -117.00741 3612 ft 156 kts 274°
2026-05-04 01:56 32.68997 -117.02001 3165 ft 153 kts 282°
2026-05-04 01:56 32.69404 -117.03181 2750 ft 148 kts 293°
2026-05-04 01:56 32.69781 -117.04289 2522 ft 146 kts 285°
2026-05-04 01:57 32.70070 -117.05442 2318 ft 147 kts 285°
2026-05-04 01:57 32.70359 -117.06577 2088 ft 141 kts 285°
2026-05-04 01:57 32.70628 -117.07681 1846 ft 138 kts 285°
2026-05-04 01:57 32.70892 -117.08769 1629 ft 137 kts 285°
2026-05-04 01:58 32.71152 -117.09851 1404 ft 136 kts 286°
2026-05-04 01:58 32.71416 -117.10926 1223 ft 136 kts 285°
2026-05-04 01:58 32.71680 -117.12019 1103 ft 141 kts 285°
2026-05-04 01:58 32.71943 -117.13149 995 ft 143 kts 283°
2026-05-04 01:59 32.72203 -117.14280 857 ft 143 kts 285°
2026-05-04 01:59 32.72492 -117.15403 690 ft 141 kts 286°
2026-05-04 01:59 32.72761 -117.16513 471 ft 140 kts 284°
2026-05-04 01:59 32.73031 -117.17642 169 ft 142 kts 285°
2026-05-04 02:00 32.73295 -117.18715 27 ft 122 kts 284°
2026-05-04 02:00 32.73467 -117.19423 27 ft 59 kts 285°
2026-05-04 02:00 32.73532 -117.19704 28 ft 12 kts 276°
2026-05-04 02:00 32.73489 -117.19846 30 ft 7 kts 208°